OAS9474 SKBO-SKCL

Flight info

Callsign OAS9474
Flight time 0h 46m
Altitude 24000
Route KAMIS6A KAMIS W16 GIR R564 MANGA MANGA1B
Aircraft A20N/M-SDE2E3FGHIRWXY/LB1

Departure

Time 2026-04-22 23:18
Airport El Dorado International Airport (SKBO)

Arrival

Time 2026-04-23 00:04
Airport Alfonso Bonilla Aragon International Airport (SKCL)
Time Latitude Longitude Altitude Speed Heading
2026-04-22 23:02 4.69854 -74.14620 8364 ft 0 kts 58°
2026-04-22 23:04 4.69842 -74.14629 8341 ft 3 kts 354°
2026-04-22 23:04 4.69830 -74.14625 8343 ft 0 kts 300°
2026-04-22 23:09 4.69832 -74.14634 8341 ft 5 kts 281°
2026-04-22 23:10 4.69841 -74.14692 8365 ft 12 kts 290°
2026-04-22 23:10 4.69898 -74.14781 8364 ft 19 kts 307°
2026-04-22 23:10 4.70001 -74.14824 8365 ft 16 kts 34°
2026-04-22 23:10 4.70080 -74.14767 8364 ft 13 kts 36°
2026-04-22 23:11 4.70147 -74.14716 8364 ft 11 kts 38°
2026-04-22 23:11 4.70204 -74.14673 8364 ft 9 kts 36°
2026-04-22 23:11 4.70251 -74.14637 8364 ft 7 kts 37°
2026-04-22 23:11 4.70298 -74.14601 8364 ft 10 kts 38°
2026-04-22 23:12 4.70365 -74.14551 8364 ft 14 kts 37°
2026-04-22 23:12 4.70447 -74.14489 8365 ft 16 kts 36°
2026-04-22 23:12 4.70522 -74.14464 8364 ft 5 kts 328°
2026-04-22 23:12 4.70557 -74.14500 8365 ft 9 kts 309°
2026-04-22 23:13 4.70593 -74.14547 8365 ft 7 kts 307°
2026-04-22 23:13 4.70633 -74.14599 8364 ft 12 kts 307°
2026-04-22 23:13 4.70693 -74.14679 8364 ft 17 kts 307°
2026-04-22 23:13 4.70771 -74.14783 8364 ft 21 kts 307°
2026-04-22 23:14 4.70860 -74.14902 8364 ft 21 kts 307°
2026-04-22 23:14 4.70944 -74.15013 8364 ft 19 kts 307°
2026-04-22 23:14 4.71021 -74.15115 8364 ft 17 kts 307°
2026-04-22 23:14 4.71089 -74.15205 8364 ft 16 kts 304°
2026-04-22 23:15 4.71160 -74.15285 8364 ft 15 kts 329°
2026-04-22 23:15 4.71216 -74.15293 8364 ft 0 kts 17°
2026-04-22 23:16 4.71224 -74.15289 8364 ft 4 kts 21°
2026-04-22 23:16 4.71271 -74.15253 8364 ft 9 kts 46°
2026-04-22 23:16 4.71309 -74.15196 8363 ft 16 kts 84°
2026-04-22 23:17 4.71232 -74.15062 8363 ft 35 kts 126°
2026-04-22 23:17 4.70973 -74.14722 8362 ft 86 kts 126°
2026-04-22 23:17 4.70511 -74.14109 8363 ft 135 kts 127°
2026-04-22 23:17 4.69845 -74.13232 8364 ft 178 kts 127°
2026-04-22 23:18 4.69051 -74.12231 8680 ft 182 kts 131°
2026-04-22 23:18 4.68232 -74.11207 8962 ft 193 kts 129°
2026-04-22 23:18 4.67438 -74.10122 9472 ft 192 kts 130°
2026-04-22 23:18 4.66393 -74.09327 9923 ft 189 kts 163°
2026-04-22 23:19 4.65133 -74.09360 10249 ft 191 kts 207°
2026-04-22 23:19 4.64233 -74.10342 10403 ft 202 kts 250°
2026-04-22 23:19 4.63902 -74.11764 10612 ft 218 kts 261°
2026-04-22 23:19 4.63642 -74.13319 10819 ft 234 kts 260°
2026-04-22 23:20 4.63323 -74.14969 11072 ft 246 kts 258°
2026-04-22 23:20 4.62946 -74.16680 11348 ft 260 kts 257°
2026-04-22 23:20 4.62514 -74.18502 11715 ft 274 kts 256°
2026-04-22 23:20 4.62056 -74.20361 12446 ft 274 kts 256°
2026-04-22 23:21 4.61597 -74.22198 13176 ft 276 kts 256°
2026-04-22 23:21 4.61126 -74.24065 13961 ft 277 kts 256°
2026-04-22 23:21 4.60647 -74.25950 14548 ft 282 kts 255°
2026-04-22 23:21 4.59928 -74.27783 15127 ft 286 kts 240°
2026-04-22 23:22 4.58838 -74.29514 15439 ft 302 kts 236°
2026-04-22 23:22 4.57598 -74.31293 15708 ft 320 kts 235°
2026-04-22 23:22 4.56285 -74.33157 15967 ft 335 kts 235°
2026-04-22 23:22 4.54912 -74.35114 16198 ft 351 kts 235°
2026-04-22 23:23 4.53488 -74.37155 16451 ft 363 kts 235°
2026-04-22 23:23 4.52052 -74.39218 16910 ft 368 kts 235°
2026-04-22 23:23 4.50580 -74.41336 17441 ft 372 kts 235°
2026-04-22 23:23 4.49098 -74.43471 17959 ft 375 kts 235°
2026-04-22 23:24 4.47603 -74.45626 18466 ft 378 kts 235°
2026-04-22 23:24 4.46096 -74.47798 18888 ft 381 kts 235°
2026-04-22 23:24 4.45092 -74.49245 19161 ft 383 kts 235°
2026-04-22 23:24 4.43050 -74.52190 19626 ft 387 kts 235°
2026-04-22 23:25 4.41509 -74.54411 20010 ft 389 kts 235°
2026-04-22 23:25 4.39960 -74.56645 20401 ft 392 kts 236°
2026-04-22 23:25 4.38421 -74.58863 20805 ft 394 kts 236°
2026-04-22 23:25 4.36849 -74.61129 21197 ft 397 kts 236°
2026-04-22 23:26 4.35267 -74.63408 21592 ft 400 kts 236°
2026-04-22 23:26 4.33671 -74.65704 21982 ft 403 kts 236°
2026-04-22 23:26 4.32063 -74.68018 22379 ft 406 kts 236°
2026-04-22 23:26 4.30449 -74.70346 22775 ft 409 kts 236°
2026-04-22 23:27 4.28821 -74.72697 23189 ft 412 kts 236°
2026-04-22 23:27 4.27185 -74.75062 23551 ft 415 kts 236°
2026-04-22 23:27 4.26095 -74.76638 23680 ft 416 kts 236°
2026-04-22 23:27 4.23893 -74.79821 23744 ft 416 kts 236°
2026-04-22 23:28 4.22798 -74.81403 23746 ft 417 kts 236°
2026-04-22 23:28 4.20612 -74.84563 23973 ft 417 kts 236°
2026-04-22 23:28 4.19094 -74.87035 23976 ft 417 kts 241°
2026-04-22 23:28 4.17691 -74.89577 23974 ft 417 kts 242°
2026-04-22 23:29 4.16334 -74.92138 23968 ft 417 kts 243°
2026-04-22 23:29 4.15004 -74.94719 23969 ft 417 kts 243°
2026-04-22 23:29 4.13702 -74.97273 23969 ft 417 kts 243°
2026-04-22 23:29 4.12389 -74.99859 23969 ft 417 kts 243°
2026-04-22 23:30 4.11073 -75.02448 23968 ft 417 kts 243°
2026-04-22 23:30 4.09755 -75.05033 23969 ft 417 kts 243°
2026-04-22 23:30 4.08434 -75.07617 23963 ft 417 kts 243°
2026-04-22 23:30 4.07113 -75.10198 23965 ft 416 kts 243°
2026-04-22 23:31 4.05791 -75.12776 23962 ft 416 kts 243°
2026-04-22 23:31 4.04469 -75.15354 23960 ft 416 kts 243°
2026-04-22 23:31 4.03595 -75.17057 23959 ft 416 kts 243°
2026-04-22 23:31 4.01844 -75.20468 23960 ft 416 kts 243°
2026-04-22 23:32 4.00522 -75.23046 23982 ft 416 kts 243°
2026-04-22 23:32 3.99201 -75.25619 23981 ft 416 kts 243°
2026-04-22 23:32 3.98326 -75.27324 23965 ft 416 kts 243°
2026-04-22 23:32 3.96560 -75.30765 23964 ft 415 kts 243°
2026-04-22 23:33 3.95685 -75.32471 23963 ft 416 kts 243°
2026-04-22 23:33 3.94363 -75.35046 23962 ft 416 kts 243°
2026-04-22 23:33 3.93041 -75.37621 23996 ft 416 kts 243°
2026-04-22 23:33 3.91721 -75.40193 23996 ft 416 kts 243°
2026-04-22 23:34 3.89971 -75.43603 23991 ft 416 kts 243°
2026-04-22 23:34 3.89077 -75.45342 23994 ft 415 kts 243°
2026-04-22 23:34 3.87329 -75.48748 23993 ft 415 kts 243°
2026-04-22 23:34 3.86454 -75.50451 24045 ft 415 kts 243°
2026-04-22 23:35 3.85136 -75.53018 24044 ft 415 kts 243°
2026-04-22 23:35 3.83816 -75.55590 24019 ft 415 kts 243°
2026-04-22 23:35 3.82496 -75.58163 24023 ft 415 kts 243°
2026-04-22 23:35 3.81177 -75.60732 24019 ft 415 kts 243°
2026-04-22 23:36 3.79858 -75.63298 24012 ft 415 kts 243°
2026-04-22 23:36 3.78537 -75.65869 24064 ft 415 kts 243°
2026-04-22 23:36 3.77216 -75.68441 24064 ft 415 kts 243°
2026-04-22 23:36 3.75898 -75.71007 24064 ft 415 kts 243°
2026-04-22 23:37 3.74594 -75.73545 24062 ft 415 kts 243°
2026-04-22 23:37 3.73274 -75.76114 24067 ft 415 kts 243°
2026-04-22 23:37 3.71954 -75.78683 24102 ft 415 kts 243°
2026-04-22 23:37 3.70662 -75.81256 24100 ft 413 kts 245°
2026-04-22 23:38 3.69509 -75.83889 24096 ft 412 kts 247°
2026-04-22 23:38 3.68404 -75.86532 24089 ft 412 kts 248°
2026-04-22 23:38 3.67300 -75.89188 24087 ft 413 kts 248°
2026-04-22 23:38 3.66194 -75.91846 24091 ft 414 kts 248°
2026-04-22 23:39 3.65113 -75.94439 23787 ft 404 kts 248°
2026-04-22 23:39 3.64046 -75.96992 23400 ft 391 kts 248°
2026-04-22 23:39 3.63010 -75.99472 22854 ft 382 kts 248°
2026-04-22 23:39 3.61992 -76.01906 22241 ft 376 kts 248°
2026-04-22 23:40 3.60989 -76.04303 21655 ft 370 kts 248°
2026-04-22 23:40 3.59944 -76.06648 20981 ft 367 kts 245°
2026-04-22 23:40 3.58862 -76.08954 20288 ft 364 kts 245°
2026-04-22 23:40 3.57786 -76.11228 19704 ft 359 kts 245°
2026-04-22 23:41 3.56723 -76.13471 19123 ft 355 kts 245°
2026-04-22 23:41 3.55683 -76.15668 18520 ft 352 kts 245°
2026-04-22 23:41 3.54642 -76.17870 17888 ft 348 kts 245°
2026-04-22 23:41 3.53611 -76.20050 17219 ft 345 kts 245°
2026-04-22 23:42 3.52593 -76.22206 16553 ft 341 kts 245°
2026-04-22 23:42 3.51583 -76.24344 15915 ft 338 kts 245°
2026-04-22 23:42 3.50516 -76.26420 15309 ft 335 kts 237°
2026-04-22 23:42 3.48974 -76.28140 14674 ft 333 kts 218°
2026-04-22 23:43 3.46913 -76.29174 14069 ft 333 kts 198°
2026-04-22 23:43 3.44715 -76.29737 13504 ft 329 kts 194°
2026-04-22 23:43 3.42487 -76.30218 12885 ft 325 kts 193°
2026-04-22 23:43 3.40318 -76.30677 12559 ft 313 kts 193°
2026-04-22 23:44 3.38238 -76.31122 12305 ft 299 kts 193°
2026-04-22 23:44 3.36254 -76.31552 12098 ft 285 kts 193°
2026-04-22 23:44 3.34394 -76.32065 11898 ft 269 kts 207°
2026-04-22 23:44 3.33092 -76.33247 11706 ft 246 kts 242°
2026-04-22 23:45 3.32779 -76.34857 11323 ft 236 kts 279°
2026-04-22 23:45 3.33405 -76.36343 10906 ft 229 kts 300°
2026-04-22 23:45 3.34503 -76.38032 10593 ft 207 kts 302°
2026-04-22 23:45 3.35004 -76.38802 10491 ft 192 kts 302°
2026-04-22 23:46 3.35734 -76.39863 10147 ft 183 kts 309°
2026-04-22 23:46 3.36720 -76.40674 9607 ft 186 kts 333°
2026-04-22 23:46 3.37973 -76.40977 9063 ft 187 kts 359°
2026-04-22 23:46 3.39260 -76.40831 8579 ft 186 kts 11°
2026-04-22 23:47 3.40518 -76.40583 8135 ft 183 kts 10°
2026-04-22 23:47 3.41771 -76.40358 7741 ft 182 kts 10°
2026-04-22 23:47 3.43025 -76.40140 7253 ft 184 kts 10°
2026-04-22 23:47 3.44278 -76.39923 6717 ft 187 kts 10°
2026-04-22 23:48 3.45575 -76.39698 6130 ft 191 kts 10°
2026-04-22 23:48 3.46893 -76.39468 5528 ft 193 kts 10°
2026-04-22 23:48 3.48222 -76.39235 4943 ft 194 kts 10°
2026-04-22 23:48 3.49555 -76.39002 4380 ft 195 kts
2026-04-22 23:49 3.50892 -76.38769 3765 ft 195 kts
2026-04-22 23:49 3.52218 -76.38495 3371 ft 195 kts
2026-04-22 23:49 3.53569 -76.38219 3873 ft 206 kts
2026-04-22 23:49 3.54893 -76.37964 5001 ft 182 kts 10°
2026-04-22 23:50 3.56080 -76.37744 5967 ft 167 kts 10°
2026-04-22 23:50 3.57220 -76.37574 6613 ft 168 kts
2026-04-22 23:50 3.58434 -76.37402 6951 ft 187 kts
2026-04-22 23:50 3.59817 -76.37189 7033 ft 216 kts
2026-04-22 23:51 3.61396 -76.36930 6965 ft 241 kts
2026-04-22 23:51 3.63081 -76.36644 6971 ft 247 kts 10°
2026-04-22 23:51 3.64772 -76.36353 6990 ft 246 kts 10°
2026-04-22 23:51 3.66458 -76.36062 6987 ft 246 kts 10°
2026-04-22 23:52 3.68105 -76.35714 6993 ft 245 kts 19°
2026-04-22 23:52 3.69611 -76.34937 7005 ft 244 kts 39°
2026-04-22 23:52 3.70660 -76.33626 6994 ft 243 kts 67°
2026-04-22 23:52 3.70925 -76.31974 7002 ft 243 kts 98°
2026-04-22 23:53 3.70295 -76.30428 7008 ft 242 kts 130°
2026-04-22 23:53 3.68965 -76.29430 6997 ft 242 kts 160°
2026-04-22 23:53 3.67312 -76.29134 7004 ft 243 kts 177°
2026-04-22 23:53 3.65616 -76.29156 6989 ft 245 kts 184°
2026-04-22 23:54 3.63945 -76.29325 7000 ft 245 kts 187°
2026-04-22 23:54 3.62256 -76.29552 6999 ft 245 kts 187°
2026-04-22 23:54 3.60566 -76.29783 6985 ft 245 kts 187°
2026-04-22 23:54 3.58876 -76.29998 6986 ft 245 kts 186°
2026-04-22 23:55 3.57184 -76.30191 6997 ft 245 kts 186°
2026-04-22 23:55 3.55490 -76.30366 6985 ft 245 kts 185°
2026-04-22 23:55 3.53794 -76.30530 6989 ft 245 kts 185°
2026-04-22 23:55 3.52098 -76.30687 6996 ft 245 kts 185°
2026-04-22 23:56 3.50403 -76.30841 7013 ft 245 kts 185°
2026-04-22 23:56 3.48769 -76.30990 7027 ft 226 kts 185°
2026-04-22 23:56 3.47260 -76.31128 7011 ft 219 kts 185°
2026-04-22 23:56 3.45741 -76.31268 7007 ft 219 kts 185°
2026-04-22 23:57 3.44224 -76.31409 7013 ft 219 kts 185°
2026-04-22 23:57 3.42707 -76.31549 7012 ft 219 kts 185°
2026-04-22 23:57 3.41189 -76.31690 7009 ft 219 kts 185°
2026-04-22 23:57 3.39674 -76.31831 7012 ft 219 kts 185°
2026-04-22 23:58 3.38157 -76.31971 7013 ft 219 kts 185°
2026-04-22 23:58 3.36660 -76.32109 7012 ft 219 kts 185°
2026-04-22 23:58 3.35163 -76.32358 7007 ft 219 kts 199°
2026-04-22 23:58 3.33932 -76.33218 6906 ft 219 kts 229°
2026-04-22 23:59 3.33280 -76.34581 6451 ft 221 kts 264°
2026-04-22 23:59 3.33556 -76.36060 6090 ft 216 kts 295°
2026-04-22 23:59 3.34262 -76.37385 5999 ft 217 kts 300°
2026-04-22 23:59 3.35039 -76.38680 5999 ft 217 kts 303°
2026-04-23 00:00 3.37283 -76.40586 6003 ft 215 kts 341°
2026-04-23 00:00 3.38741 -76.40862 5875 ft 213 kts
2026-04-23 00:00 3.40190 -76.40682 5612 ft 213 kts 12°
2026-04-23 00:01 3.41626 -76.40386 5315 ft 207 kts 11°
2026-04-23 00:01 3.43027 -76.40138 5040 ft 199 kts 10°
2026-04-23 00:01 3.44344 -76.39913 4823 ft 186 kts
2026-04-23 00:01 3.45578 -76.39696 4596 ft 174 kts
2026-04-23 00:02 3.46733 -76.39494 4390 ft 162 kts
2026-04-23 00:02 3.47819 -76.39305 4198 ft 157 kts
2026-04-23 00:02 3.48893 -76.39118 3994 ft 156 kts
2026-04-23 00:02 3.49951 -76.38933 3782 ft 156 kts
2026-04-23 00:03 3.51020 -76.38747 3560 ft 156 kts
2026-04-23 00:03 3.52086 -76.38561 3373 ft 155 kts 11°
2026-04-23 00:03 3.53147 -76.38375 3181 ft 154 kts 11°
2026-04-23 00:03 3.54099 -76.38209 3169 ft 114 kts
2026-04-23 00:04 3.54705 -76.38104 3167 ft 63 kts
2026-04-23 00:04 3.55003 -76.38052 3168 ft 36 kts 10°
2026-04-23 00:04 3.55104 -76.38122 3170 ft 17 kts 279°
2026-04-23 00:04 3.55108 -76.38152 3170 ft 0 kts 277°
2026-04-23 00:05 3.55108 -76.38159 3170 ft 3 kts 268°
2026-04-23 00:05 3.55101 -76.38176 3170 ft 4 kts 243°
2026-04-23 00:06 3.55043 -76.38210 3171 ft 16 kts 192°
2026-04-23 00:06 3.54894 -76.38235 3169 ft 24 kts 189°
2026-04-23 00:06 3.54730 -76.38262 3168 ft 24 kts 189°
2026-04-23 00:06 3.54573 -76.38288 3168 ft 23 kts 189°
2026-04-23 00:07 3.54417 -76.38317 3168 ft 23 kts 191°
2026-04-23 00:07 3.54265 -76.38345 3169 ft 22 kts 189°
2026-04-23 00:07 3.54114 -76.38376 3168 ft 22 kts 199°
2026-04-23 00:07 3.53996 -76.38459 3166 ft 20 kts 220°
2026-04-23 00:08 3.53889 -76.38547 3166 ft 20 kts 219°
2026-04-23 00:08 3.53780 -76.38595 3165 ft 15 kts 185°
2026-04-23 00:08 3.53757 -76.38597 3165 ft 0 kts 188°
2026-04-23 00:08 3.53745 -76.38587 3167 ft 2 kts 130°
2026-04-23 00:09 3.53727 -76.38565 3165 ft 6 kts 128°
2026-04-23 00:09 3.53710 -76.38566 3165 ft 4 kts 237°
2026-04-23 00:09 3.53702 -76.38590 3165 ft 0 kts 255°
2026-04-23 00:09 3.53701 -76.38602 3165 ft 0 kts 262°